TimeEEST,TemperatureF,Dew PointF,Humidity,Sea Level PressureIn,VisibilityMPH,Wind Direction,Wind SpeedMPH,Gust SpeedMPH,PrecipitationIn,Events,Conditions,WindDirDegrees,DateUTC
12:20 AM,60.8,46.4,59,30.01,-9999.0,East,18.4,-,N/A,,Clear,90,2013-07-04 21:20:00
12:50 AM,60.8,46.4,59,30.01,-9999.0,East,16.1,-,N/A,,Clear,90,2013-07-04 21:50:00
1:20 AM,59.0,46.4,63,30.01,-9999.0,East,13.8,-,N/A,,Clear,80,2013-07-04 22:20:00
1:50 AM,59.0,46.4,63,30.01,-9999.0,East,12.7,-,N/A,,Clear,80,2013-07-04 22:50:00
2:20 AM,57.2,46.4,67,30.01,-9999.0,East,10.4,-,N/A,,Clear,90,2013-07-04 23:20:00
2:50 AM,57.2,46.4,67,30.01,-9999.0,East,11.5,-,N/A,,Clear,90,2013-07-04 23:50:00
3:00 AM,57,47,60,,12,East,11.5,,,,,90,2013-07-05 00:00:00
3:20 AM,53.6,46.4,77,30.01,-9999.0,NE,5.8,-,N/A,,Clear,50,2013-07-05 00:20:00
3:50 AM,51.8,46.4,82,30.01,-9999.0,NNE,5.8,-,N/A,,Clear,30,2013-07-05 00:50:00
4:20 AM,51.8,46.4,82,30.01,-9999.0,NNE,6.9,-,N/A,,Clear,30,2013-07-05 01:20:00
4:50 AM,50.0,48.2,94,30.01,-9999.0,NE,5.8,-,N/A,,Clear,40,2013-07-05 01:50:00
5:20 AM,50.0,46.4,87,30.04,-9999.0,ENE,4.6,-,N/A,,Clear,70,2013-07-05 02:20:00
5:50 AM,53.6,48.2,82,30.04,-9999.0,NE,5.8,-,N/A,,Clear,40,2013-07-05 02:50:00
6:20 AM,59.0,48.2,67,30.01,-9999.0,NE,8.1,-,N/A,,Clear,50,2013-07-05 03:20:00
6:50 AM,60.8,48.2,63,30.01,-9999.0,ENE,12.7,-,N/A,,Clear,70,2013-07-05 03:50:00
7:20 AM,60.8,48.2,63,30.01,-9999.0,East,15.0,-,N/A,,Clear,80,2013-07-05 04:20:00
7:50 AM,62.6,48.2,59,30.01,-9999.0,East,16.1,-,N/A,,Clear,90,2013-07-05 04:50:00
8:20 AM,62.6,46.4,55,30.01,-9999.0,East,16.1,-,N/A,,Clear,80,2013-07-05 05:20:00
8:50 AM,66.2,46.4,49,30.01,-9999.0,ENE,19.6,-,N/A,,Clear,70,2013-07-05 05:50:00
9:00 AM,65,46,40,,12,ENE,19.6,,,,,70,2013-07-05 06:00:00
9:20 AM,66.2,48.2,52,30.01,-9999.0,East,18.4,-,N/A,,Clear,80,2013-07-05 06:20:00
9:50 AM,68.0,48.2,49,30.01,6.2,East,18.4,-,N/A,,Partly Cloudy,90,2013-07-05 06:50:00
10:20 AM,68.0,48.2,49,30.01,6.2,East,18.4,-,N/A,,Partly Cloudy,90,2013-07-05 07:20:00
10:50 AM,69.8,48.2,46,29.98,6.2,East,17.3,-,N/A,,Partly Cloudy,80,2013-07-05 07:50:00
11:20 AM,71.6,48.2,43,29.98,6.2,ENE,16.1,-,N/A,,Partly Cloudy,70,2013-07-05 08:20:00
11:50 AM,73.4,48.2,41,29.98,6.2,East,16.1,-,N/A,,Partly Cloudy,80,2013-07-05 08:50:00
12:20 PM,73.4,48.2,41,29.98,6.2,East,15.0,-,N/A,,Partly Cloudy,90,2013-07-05 09:20:00
12:50 PM,75.2,48.2,38,29.98,6.2,East,13.8,-,N/A,,Scattered Clouds,80,2013-07-05 09:50:00
1:20 PM,77.0,50.0,39,29.95,6.2,East,11.5,-,N/A,,Scattered Clouds,80,2013-07-05 10:20:00
1:50 PM,78.8,48.2,34,29.95,6.2,NE,9.2,-,N/A,,Scattered Clouds,50,2013-07-05 10:50:00
2:20 PM,78.8,48.2,34,29.95,6.2,NE,6.9,-,N/A,,Scattered Clouds,50,2013-07-05 11:20:00
2:50 PM,78.8,46.4,32,29.95,6.2,Variable,4.6,-,N/A,,Scattered Clouds,0,2013-07-05 11:50:00
3:00 PM,80,46,20,,12,ESE,4.6,,,,Partly Cloudy,120,2013-07-05 12:00:00
3:11 PM,77.0,46.4,34,29.95,6.2,East,4.6,-,N/A,Rain,Light Rain Showers,80,2013-07-05 12:11:00
3:20 PM,77.0,46.4,34,29.95,6.2,ENE,4.6,-,N/A,Rain,Light Rain Showers,70,2013-07-05 12:20:00
3:28 PM,77.0,48.2,36,29.95,6.2,Variable,3.5,-,N/A,Thunderstorm,Thunderstorm,0,2013-07-05 12:28:00
3:50 PM,78.8,46.4,32,29.95,6.2,NW,4.6,-,N/A,,Scattered Clouds,310,2013-07-05 12:50:00
4:20 PM,78.8,46.4,32,29.92,6.2,NE,5.8,-,N/A,,Scattered Clouds,50,2013-07-05 13:20:00
4:50 PM,77.0,50.0,39,29.92,6.2,East,10.4,-,N/A,,Scattered Clouds,90,2013-07-05 13:50:00
5:20 PM,78.8,48.2,34,29.92,6.2,East,6.9,-,N/A,,Scattered Clouds,90,2013-07-05 14:20:00
5:50 PM,77.0,46.4,34,29.92,6.2,East,4.6,-,N/A,,Scattered Clouds,100,2013-07-05 14:50:00
6:20 PM,77.0,46.4,34,29.92,6.2,ESE,4.6,-,N/A,,Scattered Clouds,110,2013-07-05 15:20:00
6:50 PM,77.0,51.8,41,29.92,6.2,East,5.8,-,N/A,,Scattered Clouds,80,2013-07-05 15:50:00
7:20 PM,71.6,53.6,53,29.95,6.2,East,10.4,-,N/A,,Scattered Clouds,100,2013-07-05 16:20:00
7:50 PM,69.8,51.8,53,29.95,6.2,East,11.5,-,N/A,,Scattered Clouds,100,2013-07-05 16:50:00
8:20 PM,68.0,51.8,56,29.98,6.2,East,12.7,-,N/A,,Scattered Clouds,80,2013-07-05 17:20:00
8:50 PM,66.2,50.0,56,29.98,6.2,East,10.4,-,N/A,,Scattered Clouds,90,2013-07-05 17:50:00
9:00 PM,66,49,43,,12,East,10.4,,,,Partly Cloudy,90,2013-07-05 18:00:00
9:20 PM,66.2,48.2,52,30.01,6.2,East,10.4,-,N/A,,Scattered Clouds,90,2013-07-05 18:20:00
9:50 PM,66.2,46.4,49,30.01,6.2,East,12.7,-,N/A,,Scattered Clouds,80,2013-07-05 18:50:00
10:20 PM,64.4,48.2,56,30.01,-9999.0,East,11.5,-,N/A,,Clear,90,2013-07-05 19:20:00
10:50 PM,64.4,48.2,56,30.01,-9999.0,East,11.5,-,N/A,,Clear,80,2013-07-05 19:50:00
11:20 PM,62.6,48.2,59,30.04,-9999.0,East,9.2,-,N/A,,Clear,90,2013-07-05 20:20:00
11:50 PM,62.6,48.2,59,30.04,-9999.0,East,9.2,-,N/A,,Clear,90,2013-07-05 20:50:00